CZ-2D DEB, 35272

Orbit data source: Space-Track

CZ-2D DEB, 35272 is space debris in SSO originally from a launch on Tue, 05 Jul 2005 UTC launched from the Jiuquan Satellite Launch Center, China (JSC). Debris objects in space refer to the collection of defunct objects orbiting the Earth. Examples of debris include non-operational satellites, rocket bodies, and fragments generated from explosions, collisions, or faulty payload assembly.

Loading next visibility...
Identifier
35272, 2005-024L
Orbit
SSO
Last TLE update
8 hours ago
Origin
Manufacturer
Unknown
Mission
Spacecraft
Bus & Motor
Unknown
Mass
Unknown
Launch date (UTC)
2005-07-05 (20 years ago)
Launch vehicle
Unknown
Launch site
Jiuquan Satellite Launch Center, China (JSC)
Object type
Payload
Rocket body
Debris
Shape & HBR
Unknown
Radar Cross Section
Small (<0.1 m²)

Expand to show TLE details & history

TLE from 8 hours ago
0 CZ-2D DEB
1 35272U 05024L   25183.82563589  .00019502  00000-0  31882-3 0  9997
2 35272  97.2051 208.6972 0005851   4.8065 355.3243 15.52556537 84732
Epoch: 2025-07-02T19:48Z
TLE epoch observation values (Epoch: 2025-07-02T19:48:54.94Z)
Latitude
-0.00009°
Longitude
-9.63288°
Altitude
408.446 km
Speed
7.668 km/s
True Right ascension
13h 54m 47s
True Declination
0° 00' 00"
Sunlit
Object was in daylight at epoch
Visualization orbit readout
Latitude
-17.24612°
Longitude
-7.076°
Altitude
412.443 km
Speed
7.665 km/s
Apparent Right ascension
11h 30m 18s
Apparent Declination
-69° 08' 06"
Sunlit
Object is in full shadow
Visualization observer readout
Local Sidereal Time
15:13:42
Azimuth
199.231° SSW
Elevation
-26.503°
Doppler factor
1
Orbital elements
Apogee altitude
410.148 km
Perigee altitude
402.209 km
Semi-major axis
6,784.316 km
Eccentricity
0.00059
Inclination
97.2051°
RAAN
208.6972°
Arg. of periapsis
4.8065°
True anomaly
Unknown
Mean anomaly
355.3243°
Eccentric anomaly
Unknown
Mean motion
3.88404 °/min
Orbital period
92.69 mins
BSTAR
0.00031882
Loading maneuver chart data...
Loading SW <> Apogee altitude chart data...
Loading historical data...
Loading historical data...
Loading historical data...
Loading historical data...
Loading historical data...
Loading historical data...
Loading historical data...

CZ-2D DEB Visibility forecast

Observer location: undefined°, undefined°

Span
Click to sort rows by Start time (UTC) header in descending order
Start Az.
Max El. time (UTC)
Max El. Az.
Max El.
End time (UTC)
End Az.
5 mins2025-07-03 14:55:31.172Z354.107° N2025-07-03 14:58:31.172Z276.523° WNW30.963°2025-07-03 15:00:31.172Z223.034° SW
4 mins2025-07-04 01:21:31.172Z125.145° SE2025-07-04 01:22:31.172Z94.124° ESE29.361°2025-07-04 01:25:31.172Z8.013° NNE
|